Location: Newark
(40.3500°N, 15.2333°E)
Time: 14:50:07
(UTC+00:00)

NOAA 15 - Pass Details

Date: 22 February 2020
Orbit: 797 x 813 km, 98.7° (Epoch: 01 April)

Event Time Altitude Azimuth Distance (km) Brightness Sun altitude
Rises 17:31:06 0° 165° (SSE) 3,317 7.7 -10.1°
Reaches altitude 10° 17:33:25 10° 165° (SSE) 2,391 7.0 -10.5°
Maximum altitude 17:38:44 89° 254° (WSW) 819 4.6 -11.5°
Drops below altitude 10° 17:44:05 10° 346° (NNW) 2,410 7.2 -12.6°
Sets 17:46:26 0° 347° (NNW) 3,346 8.0 -13.0°
